User: anonymous   Login
Location: Las Callecitas
(9.8750°N, 67.4611°W)
Time: 19:23:29
(UTC+00:00)
Language:

Aurora 2 Rocket - Orbit

View from above orbital plane
View from above orbital plane
View from above satellite
View from above satellite

Ground track
Ground track

The orbit data is extracted from the following two-line orbital elements,

1 21393U 91037B   24177.48004330  .00005331  00000-0  38767-3 0  9997
2 21393  24.9748 211.7090 0842555  70.8231 298.1477 13.67285154599096
Epoch (UTC): 25 June 2024 11:31:15
Eccentricity: 0.0842555
inclination: 24.9748°
perigee height: 387 km
apogee height: 1632 km
right ascension of ascending node: 211.7090°
argument of perigee: 70.8231°
revolutions per day: 13.67285154
mean anomaly at epoch: 298.1477°
orbit number at epoch: 59909

The dashed part of the orbit path shows where the satellite is in the earth's shadow,  

DLR